Year,Month,Day,Hour,Minute,Value (Times are PST for temperature in C)
2013,10,20,00,00,9.60
2013,10,20,00,01,9.60
2013,10,20,00,02,9.60
2013,10,20,00,03,9.60
2013,10,20,00,04,9.60
2013,10,20,00,05,9.60
2013,10,20,00,06,9.60
2013,10,20,00,07,9.60
2013,10,20,00,08,9.60
2013,10,20,00,09,9.60
2013,10,20,00,10,9.60
2013,10,20,00,11,9.60
2013,10,20,00,12,9.60
2013,10,20,00,13,9.60
2013,10,20,00,14,9.60
2013,10,20,00,15,9.60
2013,10,20,00,16,9.60
2013,10,20,00,17,9.60
2013,10,20,00,18,9.60
2013,10,20,00,19,9.60
2013,10,20,00,20,9.60
2013,10,20,00,21,9.60
2013,10,20,00,22,9.60
2013,10,20,00,23,9.60
2013,10,20,00,24,9.60
2013,10,20,00,25,9.60
2013,10,20,00,26,9.60
2013,10,20,00,27,9.60
2013,10,20,00,28,9.60
2013,10,20,00,29,9.60
2013,10,20,00,30,9.50
2013,10,20,00,31,9.60
2013,10,20,00,32,9.50
2013,10,20,00,33,9.50
2013,10,20,00,34,9.50
2013,10,20,00,35,9.50
2013,10,20,00,36,9.50
2013,10,20,00,37,9.50
2013,10,20,00,38,9.50
2013,10,20,00,39,9.50
2013,10,20,00,40,9.50
2013,10,20,00,41,9.50
2013,10,20,00,42,9.40
2013,10,20,00,43,9.50
2013,10,20,00,44,9.50
2013,10,20,00,45,9.40
2013,10,20,00,46,9.40
2013,10,20,00,47,9.40
2013,10,20,00,48,9.40
2013,10,20,00,49,9.40
2013,10,20,00,50,9.40
2013,10,20,00,51,9.40
2013,10,20,00,52,9.40
2013,10,20,00,53,9.40
2013,10,20,00,54,9.40
2013,10,20,00,55,9.40
2013,10,20,00,56,9.40
2013,10,20,00,57,9.40
2013,10,20,00,58,9.40
2013,10,20,00,59,9.40
2013,10,20,01,00,9.40
2013,10,20,01,01,9.40
2013,10,20,01,02,9.40
2013,10,20,01,03,9.40
2013,10,20,01,04,9.40
2013,10,20,01,05,9.40
2013,10,20,01,06,9.40
2013,10,20,01,07,9.40
2013,10,20,01,08,9.40
2013,10,20,01,09,9.40
2013,10,20,01,10,9.40
2013,10,20,01,11,9.40
2013,10,20,01,12,9.40
2013,10,20,01,13,9.40
2013,10,20,01,14,9.40
2013,10,20,01,15,9.40
2013,10,20,01,16,9.40
2013,10,20,01,17,9.30
2013,10,20,01,18,9.30
2013,10,20,01,19,9.30
2013,10,20,01,20,9.30
2013,10,20,01,21,9.30
2013,10,20,01,22,9.30
2013,10,20,01,23,9.30
2013,10,20,01,24,9.30
2013,10,20,01,25,9.30
2013,10,20,01,26,9.30
2013,10,20,01,27,9.30
2013,10,20,01,28,9.30
2013,10,20,01,29,9.30
2013,10,20,01,30,9.30
2013,10,20,01,31,9.30
2013,10,20,01,32,9.20
2013,10,20,01,33,9.20
2013,10,20,01,34,9.20
2013,10,20,01,35,9.20
2013,10,20,01,36,9.20
2013,10,20,01,37,9.20
2013,10,20,01,38,9.20
2013,10,20,01,39,9.20
2013,10,20,01,40,9.20
2013,10,20,01,41,9.20
2013,10,20,01,42,9.20
2013,10,20,01,43,9.20
2013,10,20,01,44,9.20
2013,10,20,01,45,9.20
2013,10,20,01,46,9.20
2013,10,20,01,47,9.20
2013,10,20,01,48,9.20
2013,10,20,01,49,9.20
2013,10,20,01,50,9.10
2013,10,20,01,51,9.10
2013,10,20,01,52,9.10
2013,10,20,01,53,9.10
2013,10,20,01,54,9.10
2013,10,20,01,55,9.10
2013,10,20,01,56,9.20
2013,10,20,01,57,9.20
2013,10,20,01,58,9.20
2013,10,20,01,59,9.20
2013,10,20,02,00,9.20
2013,10,20,02,01,9.20
2013,10,20,02,02,9.20
2013,10,20,02,03,9.20
2013,10,20,02,04,9.20
2013,10,20,02,05,9.20
2013,10,20,02,06,9.20
2013,10,20,02,07,9.20
2013,10,20,02,08,9.20
2013,10,20,02,09,9.20
2013,10,20,02,10,9.20
2013,10,20,02,11,9.20
2013,10,20,02,12,9.20
2013,10,20,02,13,9.20
2013,10,20,02,14,9.20
2013,10,20,02,15,9.20
2013,10,20,02,16,9.20
2013,10,20,02,17,9.20
2013,10,20,02,18,9.20
2013,10,20,02,19,9.20
2013,10,20,02,20,9.20
2013,10,20,02,21,9.20
2013,10,20,02,22,9.20
2013,10,20,02,23,9.20
2013,10,20,02,24,9.20
2013,10,20,02,25,9.20
2013,10,20,02,26,9.20
2013,10,20,02,27,9.20
2013,10,20,02,28,9.20
2013,10,20,02,29,9.20
2013,10,20,02,30,9.20
2013,10,20,02,31,9.20
2013,10,20,02,32,9.20
2013,10,20,02,33,9.20
2013,10,20,02,34,9.20
2013,10,20,02,35,9.20
2013,10,20,02,36,9.20
2013,10,20,02,37,9.20
2013,10,20,02,38,9.20
2013,10,20,02,39,9.20
2013,10,20,02,40,9.20
2013,10,20,02,41,9.20
2013,10,20,02,42,9.20
2013,10,20,02,43,9.20
2013,10,20,02,44,9.20
2013,10,20,02,45,9.20
2013,10,20,02,46,9.20
2013,10,20,02,47,9.20
2013,10,20,02,48,9.20
2013,10,20,02,49,9.20
2013,10,20,02,50,9.20
2013,10,20,02,51,9.20
2013,10,20,02,52,9.20
2013,10,20,02,53,9.20
2013,10,20,02,54,9.20
2013,10,20,02,55,9.20
2013,10,20,02,56,9.20
2013,10,20,02,57,9.20
2013,10,20,02,58,9.20
2013,10,20,02,59,9.20
2013,10,20,03,00,9.20
2013,10,20,03,01,9.20
2013,10,20,03,02,9.20
2013,10,20,03,03,9.20
2013,10,20,03,04,9.20
2013,10,20,03,05,9.20
2013,10,20,03,06,9.20
2013,10,20,03,07,9.20
2013,10,20,03,08,9.20
2013,10,20,03,09,9.20
2013,10,20,03,10,9.20
2013,10,20,03,11,9.20
2013,10,20,03,12,9.20
2013,10,20,03,13,9.20
2013,10,20,03,14,9.20
2013,10,20,03,15,9.20
2013,10,20,03,16,9.20
2013,10,20,03,17,9.20
2013,10,20,03,18,9.20
2013,10,20,03,19,9.20
2013,10,20,03,20,9.20
2013,10,20,03,21,9.20
2013,10,20,03,22,9.20
2013,10,20,03,23,9.20
2013,10,20,03,24,9.20
2013,10,20,03,25,9.20
2013,10,20,03,26,9.20
2013,10,20,03,27,9.20
2013,10,20,03,28,9.20
2013,10,20,03,29,9.20
2013,10,20,03,30,9.20
2013,10,20,03,31,9.20
2013,10,20,03,32,9.20
2013,10,20,03,33,9.20
2013,10,20,03,34,9.20
2013,10,20,03,35,9.20
2013,10,20,03,36,9.20
2013,10,20,03,37,9.20
2013,10,20,03,38,9.20
2013,10,20,03,39,9.20
2013,10,20,03,40,9.20
2013,10,20,03,41,9.20
2013,10,20,03,42,9.20
2013,10,20,03,43,9.20
2013,10,20,03,44,9.20
2013,10,20,03,45,9.20
2013,10,20,03,46,9.20
2013,10,20,03,47,9.20
2013,10,20,03,48,9.20
2013,10,20,03,49,9.20
2013,10,20,03,50,9.20
2013,10,20,03,51,9.20
2013,10,20,03,52,9.20
2013,10,20,03,53,9.20
2013,10,20,03,54,9.20
2013,10,20,03,55,9.20
2013,10,20,03,56,9.20
2013,10,20,03,57,9.20
2013,10,20,03,58,9.20
2013,10,20,03,59,9.20
2013,10,20,04,00,9.20
2013,10,20,04,01,9.20
2013,10,20,04,02,9.20
2013,10,20,04,03,9.20
2013,10,20,04,04,9.20
2013,10,20,04,05,9.20
2013,10,20,04,06,9.20
2013,10,20,04,07,9.20
2013,10,20,04,08,9.20
2013,10,20,04,09,9.10
2013,10,20,04,10,9.10
2013,10,20,04,11,9.10
2013,10,20,04,12,9.10
2013,10,20,04,13,9.20
2013,10,20,04,14,9.20
2013,10,20,04,15,9.20
2013,10,20,04,16,9.20
2013,10,20,04,17,9.20
2013,10,20,04,18,9.20
2013,10,20,04,19,9.20
2013,10,20,04,20,9.10
2013,10,20,04,21,9.10
2013,10,20,04,22,9.10
2013,10,20,04,23,9.10
2013,10,20,04,24,9.10
2013,10,20,04,25,9.10
2013,10,20,04,26,9.10
2013,10,20,04,27,9.10
2013,10,20,04,28,9.10
2013,10,20,04,29,9.10
2013,10,20,04,30,9.10
2013,10,20,04,31,9.10
2013,10,20,04,32,9.10
2013,10,20,04,33,9.10
2013,10,20,04,34,9.10
2013,10,20,04,35,9.10
2013,10,20,04,36,9.10
2013,10,20,04,37,9.10
2013,10,20,04,38,9.00
2013,10,20,04,39,9.00
2013,10,20,04,40,9.00
2013,10,20,04,41,9.00
2013,10,20,04,42,9.00
2013,10,20,04,43,9.00
2013,10,20,04,44,9.00
2013,10,20,04,45,8.90
2013,10,20,04,46,8.90
2013,10,20,04,47,8.90
2013,10,20,04,48,8.90
2013,10,20,04,49,8.90
2013,10,20,04,50,8.90
2013,10,20,04,51,8.90
2013,10,20,04,52,8.90
2013,10,20,04,53,8.90
2013,10,20,04,54,8.90
2013,10,20,04,55,8.90
2013,10,20,04,56,8.90
2013,10,20,04,57,8.90
2013,10,20,04,58,8.90
2013,10,20,04,59,8.90
2013,10,20,05,00,8.90
2013,10,20,05,01,8.90
2013,10,20,05,02,8.90
2013,10,20,05,03,8.90
2013,10,20,05,04,8.90
2013,10,20,05,05,8.90
2013,10,20,05,06,8.90
2013,10,20,05,07,8.90
2013,10,20,05,08,8.90
2013,10,20,05,09,8.90
2013,10,20,05,10,8.90
2013,10,20,05,11,8.90
2013,10,20,05,12,8.90
2013,10,20,05,13,8.90
2013,10,20,05,14,8.90
2013,10,20,05,15,8.90
2013,10,20,05,16,8.90
2013,10,20,05,17,8.90
2013,10,20,05,18,8.90
2013,10,20,05,19,8.90
2013,10,20,05,20,8.90
2013,10,20,05,21,8.80
2013,10,20,05,22,8.80
2013,10,20,05,23,8.80
2013,10,20,05,24,8.80
2013,10,20,05,25,8.80
2013,10,20,05,26,8.80
2013,10,20,05,27,8.80
2013,10,20,05,28,8.80
2013,10,20,05,29,8.80
2013,10,20,05,30,8.80
2013,10,20,05,31,8.80
2013,10,20,05,32,8.80
2013,10,20,05,33,8.80
2013,10,20,05,34,8.80
2013,10,20,05,35,8.80
2013,10,20,05,36,8.80
2013,10,20,05,37,8.80
2013,10,20,05,38,8.80
2013,10,20,05,39,8.80
2013,10,20,05,40,8.80
2013,10,20,05,41,8.80
2013,10,20,05,42,8.80
2013,10,20,05,43,8.80
2013,10,20,05,44,8.80
2013,10,20,05,45,8.80
2013,10,20,05,46,8.80
2013,10,20,05,47,8.80
2013,10,20,05,48,8.80
2013,10,20,05,49,8.70
2013,10,20,05,50,8.80
2013,10,20,05,51,8.80
2013,10,20,05,52,8.80
2013,10,20,05,53,8.80
2013,10,20,05,54,8.80
2013,10,20,05,55,8.80
2013,10,20,05,56,8.80
2013,10,20,05,57,8.80
2013,10,20,05,58,8.80
2013,10,20,05,59,8.70
2013,10,20,06,00,8.70
2013,10,20,06,01,8.70
2013,10,20,06,02,8.80
2013,10,20,06,03,8.80
2013,10,20,06,04,8.80
2013,10,20,06,05,8.80
2013,10,20,06,06,8.80
2013,10,20,06,07,8.80
2013,10,20,06,08,8.80
2013,10,20,06,09,8.70
2013,10,20,06,10,8.70
2013,10,20,06,11,8.70
2013,10,20,06,12,8.70
2013,10,20,06,13,8.70
2013,10,20,06,14,8.70
2013,10,20,06,15,8.70
2013,10,20,06,16,8.70
2013,10,20,06,17,8.70
2013,10,20,06,18,8.70
2013,10,20,06,19,8.70
2013,10,20,06,20,8.70
2013,10,20,06,21,8.60
2013,10,20,06,22,8.60
2013,10,20,06,23,8.60
2013,10,20,06,24,8.60
2013,10,20,06,25,8.60
2013,10,20,06,26,8.60
2013,10,20,06,27,8.60
2013,10,20,06,28,8.60
2013,10,20,06,29,8.60
2013,10,20,06,30,8.60
2013,10,20,06,31,8.60
2013,10,20,06,32,8.60
2013,10,20,06,33,8.60
2013,10,20,06,34,8.60
2013,10,20,06,35,8.60
2013,10,20,06,36,8.60
2013,10,20,06,37,8.60
2013,10,20,06,38,8.60
2013,10,20,06,39,8.60
2013,10,20,06,40,8.60
2013,10,20,06,41,8.60
2013,10,20,06,42,8.60
2013,10,20,06,43,8.60
2013,10,20,06,44,8.60
2013,10,20,06,45,8.60
2013,10,20,06,46,8.60
2013,10,20,06,47,8.60
2013,10,20,06,48,8.60
2013,10,20,06,49,8.60
2013,10,20,06,50,8.60
2013,10,20,06,51,8.60
2013,10,20,06,52,8.60
2013,10,20,06,53,8.60
2013,10,20,06,54,8.60
2013,10,20,06,55,8.60
2013,10,20,06,56,8.60
2013,10,20,06,57,8.60
2013,10,20,06,58,8.60
2013,10,20,06,59,8.60
2013,10,20,07,00,8.60
2013,10,20,07,01,8.60
2013,10,20,07,02,8.60
2013,10,20,07,03,8.60
2013,10,20,07,04,8.60
2013,10,20,07,05,8.60
2013,10,20,07,06,8.60
2013,10,20,07,07,8.60
2013,10,20,07,08,8.60
2013,10,20,07,09,8.60
2013,10,20,07,10,8.60
2013,10,20,07,11,8.60
2013,10,20,07,12,8.60
2013,10,20,07,13,8.60
2013,10,20,07,14,8.60
2013,10,20,07,15,8.60
2013,10,20,07,16,8.60
2013,10,20,07,17,8.60
2013,10,20,07,18,8.50
2013,10,20,07,19,8.40
2013,10,20,07,20,8.40
2013,10,20,07,21,8.40
2013,10,20,07,22,8.40
2013,10,20,07,23,8.40
2013,10,20,07,24,8.40
2013,10,20,07,25,8.40
2013,10,20,07,26,8.40
2013,10,20,07,27,8.40
2013,10,20,07,28,8.40
2013,10,20,10,51,8.90
2013,10,20,10,52,8.90
2013,10,20,10,53,8.90
2013,10,20,10,54,8.90
2013,10,20,10,55,8.90
2013,10,20,10,56,9.00
2013,10,20,10,57,9.00
2013,10,20,10,58,9.00
2013,10,20,10,59,9.00
2013,10,20,11,00,9.10
2013,10,20,11,01,9.10
2013,10,20,11,02,9.10
2013,10,20,11,03,9.10
2013,10,20,11,04,9.10
2013,10,20,11,05,9.10
2013,10,20,11,06,9.20
2013,10,20,11,07,9.20
2013,10,20,11,08,9.20
2013,10,20,11,09,9.20
2013,10,20,11,10,9.20
2013,10,20,11,11,9.20
2013,10,20,11,12,9.20
2013,10,20,11,13,9.20
2013,10,20,11,14,9.30
2013,10,20,11,15,9.30
2013,10,20,11,16,9.30
2013,10,20,11,17,9.30
2013,10,20,11,18,9.30
2013,10,20,11,19,9.30
2013,10,20,11,20,9.30
2013,10,20,11,21,9.30
2013,10,20,11,22,9.30
2013,10,20,11,23,9.40
2013,10,20,11,24,9.40
2013,10,20,11,25,9.40
2013,10,20,11,26,9.40
2013,10,20,11,27,9.40
2013,10,20,11,28,9.40
2013,10,20,11,29,9.40
2013,10,20,11,30,9.40
2013,10,20,11,31,9.40
2013,10,20,11,32,9.50
2013,10,20,11,33,9.50
2013,10,20,11,34,9.50
2013,10,20,11,35,9.50
2013,10,20,11,36,9.50
2013,10,20,11,37,9.50
2013,10,20,11,38,9.50
2013,10,20,11,39,9.50
2013,10,20,11,40,9.50
2013,10,20,11,41,9.50
2013,10,20,11,42,9.50
2013,10,20,11,43,9.50
2013,10,20,11,44,9.50
2013,10,20,11,45,9.60
2013,10,20,11,46,9.60
2013,10,20,11,47,9.60
2013,10,20,11,48,9.60
2013,10,20,11,49,9.60
2013,10,20,11,50,9.60
2013,10,20,11,51,9.70
2013,10,20,11,52,9.70
2013,10,20,11,53,9.70
2013,10,20,11,54,9.70
2013,10,20,11,55,9.70
2013,10,20,11,56,9.70
2013,10,20,11,57,9.70
2013,10,20,11,58,9.70
2013,10,20,11,59,9.70
2013,10,20,12,00,9.70
2013,10,20,12,01,9.70
2013,10,20,12,02,9.70
2013,10,20,12,03,9.70
2013,10,20,12,04,9.70
2013,10,20,12,05,9.70
2013,10,20,12,06,9.70
2013,10,20,12,07,9.70
2013,10,20,12,08,9.70
2013,10,20,12,09,9.70
2013,10,20,12,10,9.80
2013,10,20,12,11,9.80
2013,10,20,12,12,9.80
2013,10,20,12,13,9.80
2013,10,20,12,14,9.80
2013,10,20,12,15,9.90
2013,10,20,12,16,9.90
2013,10,20,12,17,9.90
2013,10,20,12,18,9.90
2013,10,20,12,19,9.90
2013,10,20,12,20,9.90
2013,10,20,12,21,9.90
2013,10,20,12,22,9.90
2013,10,20,12,23,9.90
2013,10,20,12,24,9.90
2013,10,20,12,25,9.90
2013,10,20,12,26,9.90
2013,10,20,12,27,9.90
2013,10,20,12,28,9.90
2013,10,20,12,29,10.00
2013,10,20,12,30,10.00
2013,10,20,12,31,10.00
2013,10,20,12,32,10.00
2013,10,20,12,33,10.00
2013,10,20,12,34,10.00
2013,10,20,12,35,10.00
2013,10,20,12,36,10.00
2013,10,20,12,37,10.00
2013,10,20,12,38,10.00
2013,10,20,12,39,10.10
2013,10,20,12,40,10.00
2013,10,20,12,41,10.10
2013,10,20,12,42,10.10
2013,10,20,12,43,10.10
2013,10,20,12,44,10.10
2013,10,20,12,45,10.10
2013,10,20,12,46,10.10
2013,10,20,12,47,10.10
2013,10,20,12,48,10.10
2013,10,20,12,49,10.10
2013,10,20,12,50,10.10
2013,10,20,12,51,10.10
2013,10,20,12,52,10.20
2013,10,20,12,53,10.20
2013,10,20,12,54,10.20
2013,10,20,12,55,10.20
2013,10,20,12,56,10.20
2013,10,20,12,57,10.20
2013,10,20,12,58,10.20
2013,10,20,12,59,10.30
2013,10,20,13,00,10.30
2013,10,20,13,01,10.30
2013,10,20,13,02,10.30
2013,10,20,13,03,10.30
2013,10,20,13,04,10.30
2013,10,20,13,05,10.30
2013,10,20,13,06,10.30
2013,10,20,13,07,10.30
2013,10,20,13,08,10.30
2013,10,20,13,09,10.30
2013,10,20,13,10,10.30
2013,10,20,13,11,10.30
2013,10,20,13,12,10.30
2013,10,20,13,13,10.30
2013,10,20,13,14,10.30
2013,10,20,13,15,10.30
2013,10,20,13,16,10.30
2013,10,20,13,17,10.30
2013,10,20,13,18,10.30
2013,10,20,13,19,10.30
2013,10,20,13,20,10.30
2013,10,20,13,21,10.30
2013,10,20,13,22,10.30
2013,10,20,13,23,10.30
2013,10,20,13,24,10.30
2013,10,20,13,25,10.30
2013,10,20,13,26,10.30
2013,10,20,13,27,10.30
2013,10,20,13,28,10.40
2013,10,20,13,29,10.40
2013,10,20,13,30,10.40
2013,10,20,13,31,10.50
2013,10,20,13,32,10.50
2013,10,20,13,33,10.60
2013,10,20,13,34,10.60
2013,10,20,13,35,10.60
2013,10,20,13,36,10.70
2013,10,20,13,37,10.70
2013,10,20,13,38,10.70
2013,10,20,13,39,10.80
2013,10,20,13,40,10.80
2013,10,20,13,41,10.80
2013,10,20,13,42,10.80
2013,10,20,13,43,10.80
2013,10,20,13,44,10.80
2013,10,20,13,45,10.80
2013,10,20,13,46,10.80
2013,10,20,13,47,10.80
2013,10,20,13,48,10.80
2013,10,20,13,49,10.80
2013,10,20,13,50,10.80
2013,10,20,13,51,10.80
2013,10,20,13,52,10.80
2013,10,20,13,53,10.70
2013,10,20,13,54,10.70
2013,10,20,13,55,10.70
2013,10,20,13,56,10.70
2013,10,20,13,57,10.60
2013,10,20,13,58,10.70
2013,10,20,13,59,10.60
2013,10,20,14,00,10.60
2013,10,20,14,01,10.60
2013,10,20,14,02,10.70
2013,10,20,14,03,10.70
2013,10,20,14,04,10.70
2013,10,20,14,05,10.70
2013,10,20,14,06,10.70
2013,10,20,14,07,10.80
2013,10,20,14,08,10.80
2013,10,20,14,09,10.80
2013,10,20,14,10,10.80
2013,10,20,14,11,10.90
2013,10,20,14,12,10.90
2013,10,20,14,13,11.00
2013,10,20,14,14,11.00
2013,10,20,14,15,11.10
2013,10,20,14,16,11.20
2013,10,20,14,17,11.20
2013,10,20,14,18,11.30
2013,10,20,14,19,11.30
2013,10,20,14,20,11.30
2013,10,20,14,21,11.40
2013,10,20,14,22,11.40
2013,10,20,14,23,11.40
2013,10,20,14,24,11.50
2013,10,20,14,25,11.50
2013,10,20,14,26,11.60
2013,10,20,14,27,11.60
2013,10,20,14,28,11.60
2013,10,20,14,29,11.70
2013,10,20,14,30,11.70
2013,10,20,14,31,11.70
2013,10,20,14,32,11.80
2013,10,20,14,33,11.80
2013,10,20,14,34,11.80
2013,10,20,14,35,11.90
2013,10,20,14,36,11.90
2013,10,20,14,37,12.00
2013,10,20,14,38,12.10
2013,10,20,14,39,12.20
2013,10,20,14,40,12.30
2013,10,20,14,41,12.30
2013,10,20,14,42,12.30
2013,10,20,14,43,12.40
2013,10,20,14,44,12.40
2013,10,20,14,45,12.40
2013,10,20,14,46,12.40
2013,10,20,14,47,12.40
2013,10,20,14,48,12.30
2013,10,20,14,49,12.30
2013,10,20,14,50,12.30
2013,10,20,14,51,12.30
2013,10,20,14,52,12.30
2013,10,20,14,53,12.30
2013,10,20,14,54,12.30
2013,10,20,14,55,12.40
2013,10,20,14,56,12.40
2013,10,20,14,57,12.50
2013,10,20,14,58,12.50
2013,10,20,14,59,12.60
2013,10,20,15,00,12.60
2013,10,20,15,01,12.60
2013,10,20,15,02,12.60
2013,10,20,15,03,12.60
2013,10,20,15,04,12.60
2013,10,20,15,05,12.60
2013,10,20,15,06,12.50
2013,10,20,15,07,12.50
2013,10,20,15,08,12.40
2013,10,20,15,09,12.30
2013,10,20,15,10,12.20
2013,10,20,15,11,12.10
2013,10,20,15,12,12.00
2013,10,20,15,13,12.00
2013,10,20,15,14,11.90
2013,10,20,15,15,11.90
2013,10,20,15,16,11.80
2013,10,20,15,17,11.80
2013,10,20,15,18,11.80
2013,10,20,15,19,11.80
2013,10,20,15,20,11.80
2013,10,20,15,21,11.70
2013,10,20,15,22,11.80
2013,10,20,15,23,11.80
2013,10,20,15,24,11.80
2013,10,20,15,25,11.80
2013,10,20,15,26,11.80
2013,10,20,15,27,11.90
2013,10,20,15,28,11.90
2013,10,20,15,29,12.00
2013,10,20,15,30,12.00
2013,10,20,15,31,12.00
2013,10,20,15,32,12.10
2013,10,20,15,33,12.10
2013,10,20,15,34,12.10
2013,10,20,15,35,12.10
2013,10,20,15,36,12.00
2013,10,20,15,37,12.00
2013,10,20,15,38,12.00
2013,10,20,15,39,12.00
2013,10,20,15,40,12.00
2013,10,20,15,41,12.00
2013,10,20,15,42,12.00
2013,10,20,15,43,12.00
2013,10,20,15,44,12.00
2013,10,20,15,45,12.10
2013,10,20,15,46,12.10
2013,10,20,15,47,12.10
2013,10,20,15,48,12.20
2013,10,20,15,49,12.20
2013,10,20,15,50,12.20
2013,10,20,15,51,12.20
2013,10,20,15,52,12.20
2013,10,20,15,53,12.20
2013,10,20,15,54,12.20
2013,10,20,15,55,12.10
2013,10,20,15,56,12.10
2013,10,20,15,57,12.10
2013,10,20,15,58,12.10
2013,10,20,15,59,12.00
2013,10,20,16,00,12.00
2013,10,20,16,01,12.00
2013,10,20,16,02,12.00
2013,10,20,16,03,12.00
2013,10,20,16,04,12.00
2013,10,20,16,05,12.00
2013,10,20,16,06,12.10
2013,10,20,16,07,12.10
2013,10,20,16,08,12.10
2013,10,20,16,09,12.10
2013,10,20,16,10,12.10
2013,10,20,16,11,12.10
2013,10,20,16,12,12.00
2013,10,20,16,13,12.00
2013,10,20,16,14,11.90
2013,10,20,16,15,11.90
2013,10,20,16,16,11.80
2013,10,20,16,17,11.70
2013,10,20,16,18,11.70
2013,10,20,16,19,11.70
2013,10,20,16,20,11.60
2013,10,20,16,21,11.60
2013,10,20,16,22,11.60
2013,10,20,16,23,11.60
2013,10,20,16,24,11.50
2013,10,20,16,25,11.50
2013,10,20,16,26,11.50
2013,10,20,16,27,11.40
2013,10,20,16,28,11.40
2013,10,20,16,29,11.40
2013,10,20,16,30,11.40
2013,10,20,16,31,11.40
2013,10,20,16,32,11.30
2013,10,20,16,33,11.30
2013,10,20,16,34,11.30
2013,10,20,16,35,11.20
2013,10,20,16,36,11.20
2013,10,20,16,37,11.20
2013,10,20,16,38,11.20
2013,10,20,16,39,11.10
2013,10,20,16,40,11.10
2013,10,20,16,41,11.10
2013,10,20,16,42,11.10
2013,10,20,16,43,11.10
2013,10,20,16,44,11.10
2013,10,20,16,45,11.10
2013,10,20,16,46,11.10
2013,10,20,16,47,11.10
2013,10,20,16,48,11.00
2013,10,20,16,49,11.00
2013,10,20,16,50,11.00
2013,10,20,16,51,10.90
2013,10,20,16,52,10.90
2013,10,20,16,53,10.90
2013,10,20,16,54,10.90
2013,10,20,16,55,10.90
2013,10,20,16,56,10.90
2013,10,20,16,57,10.90
2013,10,20,16,58,10.90
2013,10,20,16,59,10.90
2013,10,20,17,00,10.90
2013,10,20,17,01,10.80
2013,10,20,17,02,10.80
2013,10,20,17,03,10.80
2013,10,20,17,04,10.80
2013,10,20,17,05,10.80
2013,10,20,17,06,10.80
2013,10,20,17,07,10.80
2013,10,20,17,08,10.80
2013,10,20,17,09,10.80
2013,10,20,17,10,10.80
2013,10,20,17,11,10.80
2013,10,20,17,12,10.80
2013,10,20,17,13,10.80
2013,10,20,17,14,10.80
2013,10,20,17,15,10.80
2013,10,20,17,16,10.80
2013,10,20,17,17,10.80
2013,10,20,17,18,10.80
2013,10,20,17,19,10.80
2013,10,20,17,20,10.80
2013,10,20,17,21,10.80
2013,10,20,17,22,10.80
2013,10,20,17,23,10.80
2013,10,20,17,24,10.80
2013,10,20,17,25,10.80
2013,10,20,17,26,10.80
2013,10,20,17,27,10.80
2013,10,20,17,28,10.80
2013,10,20,17,29,10.80
2013,10,20,17,30,10.80
2013,10,20,17,31,10.80
2013,10,20,17,32,10.80
2013,10,20,17,33,10.80
2013,10,20,17,34,10.80
2013,10,20,17,35,10.70
2013,10,20,17,36,10.70
2013,10,20,17,37,10.70
2013,10,20,17,38,10.70
2013,10,20,17,39,10.70
2013,10,20,17,40,10.70
2013,10,20,17,41,10.70
2013,10,20,17,42,10.70
2013,10,20,17,43,10.60
2013,10,20,17,44,10.60
2013,10,20,17,45,10.60
2013,10,20,17,46,10.60
2013,10,20,17,47,10.60
2013,10,20,17,48,10.60
2013,10,20,17,49,10.60
2013,10,20,17,50,10.60
2013,10,20,17,51,10.60
2013,10,20,17,52,10.60
2013,10,20,17,53,10.60
2013,10,20,17,54,10.60
2013,10,20,17,55,10.60
2013,10,20,17,56,10.60
2013,10,20,17,57,10.50
2013,10,20,17,58,10.50
2013,10,20,17,59,10.50
2013,10,20,18,00,10.50
2013,10,20,18,01,10.50
2013,10,20,18,02,10.50
2013,10,20,18,03,10.50
2013,10,20,18,04,10.50
2013,10,20,18,05,10.50
2013,10,20,18,06,10.50
2013,10,20,18,07,10.40
2013,10,20,18,08,10.50
2013,10,20,18,09,10.40
2013,10,20,18,10,10.40
2013,10,20,18,11,10.40
2013,10,20,18,12,10.40
2013,10,20,18,13,10.40
2013,10,20,18,14,10.40
2013,10,20,18,15,10.40
2013,10,20,18,16,10.40
2013,10,20,18,17,10.40
2013,10,20,18,18,10.40
2013,10,20,18,19,10.40
2013,10,20,18,20,10.40
2013,10,20,18,21,10.40
2013,10,20,18,22,10.40
2013,10,20,18,23,10.40
2013,10,20,18,24,10.40
2013,10,20,18,25,10.30
2013,10,20,18,26,10.30
2013,10,20,18,27,10.30
2013,10,20,18,28,10.30
2013,10,20,18,29,10.30
2013,10,20,18,30,10.30
2013,10,20,18,31,10.30
2013,10,20,18,32,10.30
2013,10,20,18,33,10.30
2013,10,20,18,34,10.30
2013,10,20,18,35,10.30
2013,10,20,18,36,10.30
2013,10,20,18,37,10.30
2013,10,20,18,38,10.30
2013,10,20,18,39,10.30
2013,10,20,18,40,10.30
2013,10,20,18,41,10.30
2013,10,20,18,42,10.30
2013,10,20,18,43,10.30
2013,10,20,18,44,10.30
2013,10,20,18,45,10.30
2013,10,20,18,46,10.20
2013,10,20,18,47,10.20
2013,10,20,18,48,10.20
2013,10,20,18,49,10.20
2013,10,20,18,50,10.20
2013,10,20,18,51,10.20
2013,10,20,18,52,10.20
2013,10,20,18,53,10.10
2013,10,20,18,54,10.10
2013,10,20,18,55,10.10
2013,10,20,18,56,10.10
2013,10,20,18,57,10.10
2013,10,20,18,58,10.10
2013,10,20,18,59,10.10
2013,10,20,19,00,10.10
2013,10,20,19,01,10.10
2013,10,20,19,02,10.10
2013,10,20,19,03,10.10
2013,10,20,19,04,10.10
2013,10,20,19,05,10.10
2013,10,20,19,06,10.00
2013,10,20,19,07,10.00
2013,10,20,19,08,10.00
2013,10,20,19,09,10.00
2013,10,20,19,10,10.00
2013,10,20,19,11,10.00
2013,10,20,19,12,10.00
2013,10,20,19,13,10.00
2013,10,20,19,14,9.90
2013,10,20,19,15,9.90
2013,10,20,19,16,9.90
2013,10,20,19,17,9.90
2013,10,20,19,18,9.90
2013,10,20,19,19,9.90
2013,10,20,19,20,9.90
2013,10,20,19,21,9.90
2013,10,20,19,22,9.90
2013,10,20,19,23,9.90
2013,10,20,19,24,9.90
2013,10,20,19,25,9.90
2013,10,20,19,26,9.90
2013,10,20,19,27,9.90
2013,10,20,19,28,9.90
2013,10,20,19,29,9.90
2013,10,20,19,30,9.90
2013,10,20,19,31,9.90
2013,10,20,19,32,9.90
2013,10,20,19,33,9.90
2013,10,20,19,34,9.90
2013,10,20,19,35,9.90
2013,10,20,19,36,9.90
2013,10,20,19,37,9.90
2013,10,20,19,38,9.90
2013,10,20,19,39,9.90
2013,10,20,19,40,9.90
2013,10,20,19,41,9.90
2013,10,20,19,42,9.90
2013,10,20,19,43,9.90
2013,10,20,19,44,9.90
2013,10,20,19,45,9.90
2013,10,20,19,46,9.90
2013,10,20,19,47,9.90
2013,10,20,19,48,9.90
2013,10,20,19,49,9.90
2013,10,20,19,50,9.90
2013,10,20,19,51,9.90
2013,10,20,19,52,9.90
2013,10,20,19,53,9.90
2013,10,20,19,54,9.90
2013,10,20,19,55,9.90
2013,10,20,19,56,9.90
2013,10,20,19,57,9.90
2013,10,20,19,58,9.90
2013,10,20,19,59,9.90
2013,10,20,20,00,9.90
2013,10,20,20,01,9.90
2013,10,20,20,02,9.90
2013,10,20,20,03,9.90
2013,10,20,20,04,9.90
2013,10,20,20,05,9.90
2013,10,20,20,06,10.00
2013,10,20,20,07,10.00
2013,10,20,20,08,10.00
2013,10,20,20,09,10.00
2013,10,20,20,10,10.00
2013,10,20,20,11,10.00
2013,10,20,20,12,10.00
2013,10,20,20,13,10.00
2013,10,20,20,14,10.00
2013,10,20,20,15,10.00
2013,10,20,20,16,10.00
2013,10,20,20,17,10.00
2013,10,20,20,18,10.00
2013,10,20,20,19,10.00
2013,10,20,20,20,10.00
2013,10,20,20,21,10.00
2013,10,20,20,22,10.00
2013,10,20,20,23,10.00
2013,10,20,20,24,10.00
2013,10,20,20,25,10.00
2013,10,20,20,26,10.00
2013,10,20,20,27,10.00
2013,10,20,20,28,10.00
2013,10,20,20,29,10.00
2013,10,20,20,30,10.00
2013,10,20,20,31,10.00
2013,10,20,20,32,10.00
2013,10,20,20,33,10.00
2013,10,20,20,34,10.00
2013,10,20,20,35,10.00
2013,10,20,20,36,9.90
2013,10,20,20,37,9.90
2013,10,20,20,38,9.90
2013,10,20,20,39,9.90
2013,10,20,20,40,9.90
2013,10,20,20,41,9.90
2013,10,20,20,42,9.90
2013,10,20,20,43,9.90
2013,10,20,20,44,9.80
2013,10,20,20,45,9.80
2013,10,20,20,46,9.80
2013,10,20,20,47,9.80
2013,10,20,20,48,9.80
2013,10,20,20,49,9.80
2013,10,20,20,50,9.80
2013,10,20,20,51,9.80
2013,10,20,20,52,9.80
2013,10,20,20,53,9.80
2013,10,20,20,54,9.80
2013,10,20,20,55,9.80
2013,10,20,20,56,9.80
2013,10,20,20,57,9.80
2013,10,20,20,58,9.80
2013,10,20,20,59,9.80
2013,10,20,21,00,9.80
2013,10,20,21,01,9.80
2013,10,20,21,02,9.80
2013,10,20,21,03,9.80
2013,10,20,21,04,9.80
2013,10,20,21,05,9.80
2013,10,20,21,06,9.80
2013,10,20,21,07,9.80
2013,10,20,21,08,9.80